Regional Weather Roundup
Issued by NWS

Home | Current Version | Previous Version | Graphics & Text | Print | Product List | Glossary On
Versions: 1 2 3 4 5 6 7 8 9 10 11 12 13 14 15 16 17 18 19 20 21 22 23 24 25 26 27 28 29 30 31 32 33 34 35 36 37 38 39 40 41 42 43 44 45 46 47 48 49 50
000
ASUS43 KOAX 011510
RWRNE

WEATHER ROUNDUP FOR NEBRASKA
NATIONAL WEATHER SERVICE OMAHA NE
1000 AM CDT SAT OCT 01 2016

NOTES: SATELLITE DATA IS BEING USED TO AUGMENT CLOUD COVER ABOVE
       12000 FEET.
       "FAIR" INDICATES FEW OR NO CLOUDS BELOW 12,000 FEET WITH NO
       SIGNIFICANT WEATHER AND/OR OBSTRUCTIONS TO VISIBILITY.

  * THESE STATIONS DO NOT REPORT WEATHER SUCH AS RAIN...SNOW OR FOG.

NEZ001>004-019>022-054>056-011600-
NEBRASKA PANHANDLE

CITY           SKY/WX    TMP DP  RH WIND       PRES   REMARKS
SCOTTSBLUFF    SUNNY     53  46  77 CALM      30.09R
ALLIANCE       SUNNY     56  47  71 S7        30.07S
CHADRON        SUNNY     61  49  64 SW5       30.03S
KIMBALL        SUNNY     62  46  56 W8        30.12S
SIDNEY         SUNNY     61  48  62 SW7       30.10F
$$

NEZ057>060-069>072-079>082-011600-
SOUTHWEST NEBRASKA

CITY           SKY/WX    TMP DP  RH WIND       PRES   REMARKS
NORTH PLATTE   CLOUDY    59  47  64 S9        30.12R
IMPERIAL       SUNNY     58  46  64 SE8       30.11S
LEXINGTON      SUNNY     60  48  66 S6        30.13S
MCCOOK         MOSUNNY   55  47  74 S6        30.12F
OGALLALA       SUNNY     56  46  69 CALM      30.11S
$$

NEZ005>010-023>029-035>040-094-011600-
NORTH CENTRAL NEBRASKA

CITY           SKY/WX    TMP DP  RH WIND       PRES   REMARKS
VALENTINE      CLOUDY    60  45  57 S14       30.06F
AINSWORTH      SUNNY     62  48  60 S13       30.08S
BROKEN BOW     SUNNY     56  47  71 SE6       30.12S
O`NEILL        SUNNY     56  47  71 SE7       30.13F
ORD            MOSUNNY   57  46  66 SE6       30.13R
THEDFORD       CLOUDY    60  47  62 S6        30.10S
$$

NEZ041-046>049-061>064-073>077-083>087-011600-
SOUTH CENTRAL NEBRASKA

CITY           SKY/WX    TMP DP  RH WIND       PRES   REMARKS
GRAND ISLAND   PTSUNNY   58  50  75 SE5       30.15S
AURORA         MOSUNNY   56  55  94 SE5       30.15S
HASTINGS       SUNNY     57  47  69 CALM      30.16R
HEBRON         PTSUNNY   54  52  92 CALM      30.15S
HOLDREGE       SUNNY     62  47  58 S8        30.13S
KEARNEY *      SUNNY     59  46  63 S5        30.13S
YORK           MOSUNNY   57  54  88 CALM      30.15F
$$

NEZ011>018-030>034-042>045-011600-
NORTHEAST NEBRASKA

CITY           SKY/WX    TMP DP  RH WIND       PRES   REMARKS
NORFOLK        SUNNY     58  52  80 CALM      30.15S
ALBION         MOSUNNY   57  52  82 CALM      30.15S
BLAIR          CLOUDY    59  55  86 N6        30.14S
FREMONT        CLOUDY    60  55  85 CALM      30.15S
TEKAMAH        CLOUDY    61  54  77 N3        30.14S
WAYNE          MOSUNNY   58  54  85 CALM      30.15S
$$

NEZ050>053-065>068-078-088>093-011600-
SOUTHEAST NEBRASKA

CITY           SKY/WX    TMP DP  RH WIND       PRES   REMARKS
LINCOLN        SUNNY     59  54  83 E3        30.16S
OMAHA EPPLEY   CLOUDY    61  55  81 N5        30.14S
BEATRICE       MOSUNNY   56  54  92 CALM      30.15S
FALLS CITY     CLOUDY    59  56  89 NW5       30.13S
NEBRASKA CITY  CLOUDY    59  55  86 CALM      30.14S
PLATTSMOUTH    CLOUDY    60  53  77 N5        30.15R
$$

NEZ044-045-051>053-067-011600-
OMAHA AREA

CITY           SKY/WX    TMP DP  RH WIND       PRES   REMARKS
OMAHA EPPLEY   CLOUDY    61  55  81 N5        30.14S
BLAIR          CLOUDY    59  55  86 N6        30.14S
FREMONT        CLOUDY    60  55  85 CALM      30.15S
MILLARD        CLOUDY    61  55  80 CALM      30.14S
OFFUTT AFB     CLOUDY    62  57  84 NE5       30.13S
PLATTSMOUTH    CLOUDY    60  53  77 N5        30.15R
WAHOO          FAIR      60  54  82 CALM      30.15R
$$




USA.gov is the U.S. government's official web portal to all federal, state and local government web resources and services.